Regional Weather Roundup
Issued by NWS

Home | Current Version | Previous Version | Graphics & Text | Print | Product List | Glossary On
Versions: 1 2 3 4 5 6 7 8 9 10 11 12 13 14 15 16 17 18 19 20 21 22 23 24 25 26 27 28 29 30 31 32 33 34 35 36 37 38 39 40 41 42 43 44 45 46 47 48 49 50
000
ASUS43 KLMK 251502
RWRKY
KENTUCKY REGIONAL WEATHER ROUNDUP
NATIONAL WEATHER SERVICE LOUISVILLE KY
1100 AM EDT MON SEP 25 2017

NOTE "FAIR" INDICATES FEW OR NO CLOUDS BELOW 12,000 FEET
WITH NO SIGNIFICANT WEATHER AND/OR OBSTRUCTIONS TO VISIBILITY.

KYZ001>023-026-027-061>063-070>075-251600-
WESTERN AND SOUTH CENTRAL KENTUCKY

CITY           SKY/WX    TMP DP  RH WIND       PRES   REMARKS
PADUCAH        SUNNY     81  68  64 E5        30.03S
HENDERSON      SUNNY     83  68  60 MISG      30.05R
OWENSBORO      NOT AVBL
HOPKINSVILLE   SUNNY     81  68  65 SW5       30.05S
BOWLING GREEN  SUNNY     81  70  69 CALM      30.06S
GLASGOW        SUNNY     80  67  64 CALM      30.06F
$$

KYZ024-025-028>034-038-045-046-053-251600-
NORTH CENTRAL KENTUCKY

CITY           SKY/WX    TMP DP  RH WIND       PRES   REMARKS
LOUISVILLE/SDF MOSUNNY   80  66  62 W3        30.05S
LOUISVILLE/LOU SUNNY     81  69  67 SE3       30.06S
FORT KNOX      SUNNY     82  67  59 CALM      30.05S
$$

KYZ035>037-039>044-047>052-055>060-089>105-251600-
NORTHEAST KENTUCKY

CITY           SKY/WX    TMP DP  RH WIND       PRES   REMARKS
LEXINGTON      MOSUNNY   80  65  59 CALM      30.08S
COVINGTON      PTSUNNY   80  63  55 CALM      30.08S
FRANKFORT      MOSUNNY   78  65  63 CALM      30.07S
$$

KYZ054-064>069-076>088-106>120-251600-
SOUTHEAST KENTUCKY

CITY           SKY/WX    TMP DP  RH WIND       PRES   REMARKS
JACKSON        PTSUNNY   72  64  76 CALM      30.11R
LONDON         PTSUNNY   71  62  73 CALM      30.09F
SOMERSET       MOSUNNY   72  63  73 CALM      30.10S
MIDDLESBORO    CLOUDY    67  64  89 CALM      30.11F
MONTICELLO     MOSUNNY   75  66  73 NE7       30.09F
$$





USA.gov is the U.S. government's official web portal to all federal, state and local government web resources and services.